Погода в Кривко

Россия / Санкт-Петербург и Ленинградская область     60°35′10″N   30°15′39″E
темп.,
°C
ветер,
м/с
пор.,
м/с
влажн.,
%
обл.,
%
осадки,
мм/ч
давл.,
гПа
погр.,
м
7 марта, вс
вс700:000з51188100 2.5 988779
03:00−4з4108099 2.6 988432
06:00−6з5109290 0.8 986857
09:00−8зсз5118094 1.0 987770
12:00−7ссз5985100 0.8 988933
15:00−5сз5870100 0.8 990932
18:00−6сз5117899 0.0 992775
21:00−7с61193100 0.3 995965
8 марта, пн
пн800:00−9с61189100 0.7 998886
03:00−10с61190100 0.9 1002911
06:00−12с51191100 0.3 1005695
09:00−13с51090100 0.3 1008525
12:00−12с4785100 0.1 1011494
15:00−11с4683100 0.1 1013514
18:00−12с3789100 0.0 1015509
21:00−14ссз269697 0.1 1016250
9 марта, вт
вт900:00−15ссз2397100 0.1 1018124
03:00−16с2298100 0.1 101882
06:00−17с239875 0.0 101994
09:00−15всв249285 0.1 1021432
12:00−14в2384100 0.1 1022443
15:00−14в348076 0.1 1022398
18:00−17в35870 0.0 1022265
21:00−20в26930 0.0 1024178
10 марта, ср
ср1000:00−19в26950 0.0 1024171
03:00−19в24940 0.0 1025107
06:00−19вюв25930 0.0 1025131
09:00−18в13832 0.0 1026131
12:00−13в247184 0.0 1027285
15:00−11в247092 0.0 1027311
18:00−14в2481100 0.0 1026179
21:00−17юв248467 0.0 102591
11 марта, чт
чт1100:00−16юв23910 0.0 102570
03:00−17юв25910 0.0 1023107
06:00−17юв39870 0.0 1021199
09:00−15юв410710 0.0 1019311
12:00−10юв410730 0.0 1016448
15:00−8юв488027 0.0 1012616
18:00−8юв41189100 0.0 1008554
21:00−7ююв51491100 0.1 1002692